• Join FlightAware (Why Join?)
  • Login
  • US Flag 
07:18AM EST


 

Airport Tracker/Info


-or-


 

Live Flight TrackerFlight Track Log ✈ AWE1940 ✈ 27-Jun-2013 ✈ KCLT - KALB

Flight Track Log - Related Links

Times and Time Zones

All times are in EDT time to prevent confusion due to time zone crossing. See the AWE1940 flight status page for this flight to view local times or setup timezone preferences in your user account.

Time Position Orientation Groundspeed Altitude Reporting Facility
EDT Latitude Longitude Course Direction KTS MPH feet Rate Location/Type
10:48PM 35.1950 -80.9356 72° East 167 192 1,400  Level Atlanta Center
10:49PM 35.1403 -80.9172 165° South 224 258 3,200 1,860 Climbing Atlanta Center
10:49PM 35.0950 -80.8556 132° Southeast 288 331 5,100 2,460 Climbing Atlanta Center
10:50PM 35.1629 -80.5914 29° Northeast  Level FlightAware Approximate
10:51PM 35.2753 -80.5129 30° Northeast  Level FlightAware Approximate
10:51PM 35.1039 -80.7231 85° East 293 337 9,000  Level Atlanta Center
10:52PM 35.3491 -80.4069 72° East  Level FlightAware Approximate
10:52PM 35.1347 -80.6253 69° East 314 361 10,800  Level Atlanta Center
10:53PM 35.3889 -80.2559 72° East  Level FlightAware Approximate
10:53PM 35.2206 -80.5658 29° Northeast 314 361 12,900  Level Atlanta Center
10:55PM 35.3778 -80.3278 51° Northeast 373 429 18,600 2,100 Climbing Washington Center
10:56PM 35.4186 -80.1950 69° East 395 455 20,200 1,620 Climbing Washington Center
10:57PM 35.4503 -80.0744 72° East 404 465 21,900 1,620 Climbing Washington Center
10:58PM 35.4822 -79.9411 74° East 404 465 23,600 1,380 Climbing Washington Center
10:59PM 35.5186 -79.8003 72° East 416 479 24,700 1,260 Climbing Washington Center
11:00PM 35.5572 -79.6542 72° East 428 493 26,200 1,320 Climbing Washington Center
11:01PM 35.6003 -79.4878 72° East 450 518 27,400 1,140 Climbing Washington Center
11:02PM 35.6439 -79.3594 67° East 457 526 28,500 1,200 Climbing Washington Center
11:03PM 35.7025 -79.2189 63° Northeast 457 526 29,900 1,380 Climbing Washington Center
11:04PM 35.7611 -79.0783 63° Northeast 457 526 31,300 1,260 Climbing Washington Center
11:05PM 35.8153 -78.9372 65° Northeast 457 526 32,500 840 Climbing Washington Center
11:06PM 35.8731 -78.7986 63° Northeast 451 519 33,000 240 Climbing Washington Center
11:07PM 35.9394 -78.6628 59° Northeast 456 525 33,000  Level Washington Center
11:08PM 36.0219 -78.5275 53° Northeast 451 519 33,000  Level Washington Center
11:09PM 36.1125 -78.4150 45° Northeast 451 519 33,000  Level Washington Center
11:10PM 36.2025 -78.3050 45° Northeast 451 519 33,000  Level Washington Center
11:11PM 36.2947 -78.1922 45° Northeast 456 525 33,000  Level Washington Center
11:12PM 36.3847 -78.0767 46° Northeast 456 525 33,000  Level Washington Center
11:13PM 36.4728 -77.9631 46° Northeast 451 519 33,000  Level Washington Center
11:14PM 36.5561 -77.8597 45° Northeast 458 527 33,000  Level Washington Center
11:15PM 36.6458 -77.7431 46° Northeast 458 527 33,000  Level Washington Center
11:16PM 36.7356 -77.6292 45° Northeast 458 527 33,000  Level Washington Center
11:17PM 36.8250 -77.5147 46° Northeast 458 527 33,000  Level Washington Center
11:18PM 36.9164 -77.3972 46° Northeast 458 527 33,000  Level Washington Center
11:19PM 37.0078 -77.2800 46° Northeast 463 533 33,000  Level Washington Center
11:20PM 37.0992 -77.1594 46° Northeast 463 533 33,000  Level Washington Center
11:21PM 37.1906 -77.0389 46° Northeast 468 539 33,000  Level Washington Center
11:22PM 37.2836 -76.9178 46° Northeast 468 539 33,000  Level Washington Center
11:23PM 37.3872 -76.7786 47° Northeast 483 556 33,000  Level Washington Center
11:24PM 37.4822 -76.6622 44° Northeast 483 556 33,000  Level Washington Center
11:25PM 37.5750 -76.5350 47° Northeast 483 556 33,000  Level Washington Center
11:26PM 37.6700 -76.4103 46° Northeast 483 556 33,100  Climbing Washington Center
11:27PM 37.7644 -76.2878 46° Northeast 483 556 33,000 -60 Descending Washington Center
11:28PM 37.8506 -76.1731 46° Northeast 483 556 33,000  Level Washington Center
11:29PM 37.9428 -76.0525 46° Northeast 483 556 33,000  Level Washington Center
11:30PM 38.0475 -75.9344 42° Northeast 483 556 33,000  Level Washington Center
11:31PM 38.1644 -75.8453 31° Northeast 483 556 33,000  Level Washington Center
11:32PM 38.2794 -75.7531 32° Northeast 488 562 33,000  Level Washington Center
11:33PM 38.4086 -75.6553 31° Northeast 488 562 33,000  Level Washington Center
11:34PM 38.5233 -75.5653 32° Northeast 488 562 33,000  Level Washington Center
11:35PM 38.6400 -75.4747 31° Northeast 488 562 33,000  Level Washington Center
11:36PM 38.7567 -75.3814 32° Northeast 488 562 33,000  Level Washington Center
11:37PM 38.8733 -75.2850 33° Northeast 488 562 33,000  Level Washington Center
11:38PM 38.9917 -75.1911 32° Northeast 493 567 33,000  Level Washington Center
11:39PM 39.1061 -75.0994 32° Northeast 493 567 33,000  Level Washington Center
11:40PM 39.2142 -75.0131 32° Northeast 498 573 33,000  Level Washington Center
11:41PM 39.3303 -74.9181 32° Northeast 493 567 33,000  Level Washington Center
11:42PM 39.4444 -74.8231 33° Northeast 488 562 33,000  Level Washington Center
11:43PM 39.5603 -74.7247 33° Northeast 488 562 33,000  Level Washington Center
11:46PM 39.8542 -74.5106 29° Northeast 490 564 33,000  Level New York Center
11:47PM 39.9628 -74.4353 28° Northeast 490 564 33,000  Level New York Center
11:48PM 40.0864 -74.3522 27° Northeast 485 558 33,000  Level New York Center
11:49PM 40.2056 -74.2714 27° Northeast 485 558 33,000 -660 Level New York Center
11:51PM 40.4689 -74.0850 28° Northeast 487 560 31,000 -1,620 Descending Boston Center
11:52PM 40.6014 -74.0008 26° Northeast 481 554 28,000 -2,820 Descending Boston Center
11:53PM 40.7214 -73.9161 28° Northeast 481 554 25,400 -2,040 Descending Boston Center
11:54PM 40.8289 -73.8225 33° Northeast 476 548 24,000 -720 Descending Boston Center
11:55PM 40.9219 -73.7119 42° Northeast 463 533 24,000  Level Boston Center
11:56PM 41.0450 -73.6894 North 425 489 24,000  Level Boston Center
11:57PM 41.1700 -73.7003 356° North 431 496 24,000 -120 Level Boston Center
11:58PM 41.3011 -73.7083 357° North 445 512 23,800 -600 Descending Boston Center
11:59PM 41.4261 -73.7108 359° North 445 512 22,800 -1,020 Descending Boston Center
12:00AM 41.5492 -73.7217 356° North 445 512 21,800 -1,020 Descending Boston Center
12:01AM 41.6742 -73.7242 359° North 440 506 20,800 -1,920 Descending Boston Center
12:02AM 41.8017 -73.6794 15° North 431 496 17,600 -2,220 Descending Boston Center
12:03AM 41.9042 -73.6450 14° North 424 488 16,400 -2,040 Descending Boston Center
12:04AM 42.0067 -73.6136 13° North 398 458 14,100 -2,040 Descending Boston Center
12:05AM 42.0986 -73.5872 12° North 403 464 13,000 -840 Descending Boston Center
12:06AM 42.2092 -73.5697 North 399 459 12,600 -420 Descending Boston Center
12:06AM 42.2425 -73.5814 345° North 396 456 12,300 -780 Descending Boston Center
12:07AM 42.3631 -73.6117 349° North 376 433 11,400 -1,080 Descending Boston Center
12:08AM 42.4275 -73.6242 352° North 325 374 10,600 -1,620 Descending Boston Center
12:09AM 42.5131 -73.6342 355° North 310 357 8,900 -1,620 Descending Boston Center
12:10AM 42.5919 -73.6442 355° North 306 352 7,600 -1,440 Descending Boston Center
12:11AM 42.6400 -73.6481 357° North 300 345 6,600 -1,620 Descending Boston Center
12:12AM 42.7294 -73.6583 355° North 294 338 4,900 -1,560 Descending Boston Center
12:13AM 42.8003 -73.6653 356° North 294 338 3,500 -1,200 Descending Boston Center
12:14AM 42.8833 -73.6783 353° North 289 333 2,600 -780 Descending Boston Center
12:15AM 42.9331 -73.7192 329° Northwest 223 257 2,000 -300 Descending Boston Center
12:16AM 42.9133 -73.7953 251° West 190 219 2,000  Level Boston Center
12:17AM 42.8672 -73.8111 194° South 173 199 2,000 -360 Level Boston Center
12:18AM 42.8069 -73.8097 179° South 143 165 1,200 -720 Descending Boston Center
12:19AM 42.7631 -73.8061 177° South 148 170 400 -840 Descending Boston Center